Regional Weather Roundup
Issued by NWS Upton, NY

Current Version | Previous Version | Graphics & Text | Print | Product List | Glossary Off
Versions: 1 2 3 4 5 6 7 8 9 10 11 12 13 14 15 16 17 18 19 20 21 22 23 24 25 26 27 28 29 30 31 32 33 34 35 36 37 38 39 40 41 42 43 44 45 46 47 48 49 50

000
ASUS41 KOKX 032004
RWROKX

REGIONAL WEATHER ROUNDUP
NATIONAL WEATHER SERVICE NEW YORK NY
400 PM EDT MON AUG 03 2015

NOTE: "FAIR" INDICATES FEW OR NO CLOUDS BELOW 12,000 FEET WITH NO
SIGNIFICANT WEATHER AND/OR OBSTRUCTIONS TO VISIBILITY.

NYZ071-072-176-178-NJZ106-104-032100-
NEW YORK CITY METRO AREA


CITY           SKY/WX    TMP DP  RH WIND       PRES   REMARKS
CENTRAL PARK   MOSUNNY   87  61  41 S8        29.81S
LAGUARDIA APRT MOSUNNY   91  59  33 S12G22    29.77F HX  90
KENNEDY INTL   MOSUNNY   86  68  54 S24G30    29.81S
NEWARK/LIBERTY MOSUNNY   92  58  31 S15G24    29.77F HX  91
BRNX BOT. GARD   N/A     90  61  37 SE7       29.80R
TETERBORO      PTSUNNY   91  58  32 S15G26    29.75F HX  90
$$

NYZ177-179-078>081-032100-
LONG ISLAND NEW YORK

CITY           SKY/WX    TMP DP  RH WIND       PRES   REMARKS
FARMINGDALE    SUNNY     86  68  54 SW21G29   29.81F
ISLIP          MOSUNNY   84  69  60 S18G28    29.79F
SHIRLEY        SUNNY     84  70  62 SW15G25   29.82F
WESTHAMPTON    SUNNY     83  68  60 S16G23    29.84F
MONTAUK POINT    N/A     83  72  69 S8        29.84F
$$

NYZ052-065-067-032100-
HUDSON VALLEY

CITY           SKY/WX    TMP DP  RH WIND       PRES   REMARKS
WHITE PLAINS   MOSUNNY   85  61  44 S10G21    29.78F
NEWBURGH       MOSUNNY   88  59  37 SW16G22   29.77F
MONTGOMERY     PTSUNNY   89  61  38 SW15G26   29.75F
POUGHKEEPSIE   PTSUNNY   90  58  33 S10G17    29.73F
ALBANY         CLOUDY    76  67  73 E12       29.74R
$$

NJZ001-105-106-008-010-013-015-019>022-104-032100-
NEW JERSEY

CITY           SKY/WX    TMP DP  RH WIND       PRES   REMARKS
NEWARK/LIBERTY MOSUNNY   92  58  31 S15G24    29.77F HX  91
TETERBORO      PTSUNNY   91  58  32 S15G26    29.75F HX  90
CALDWELL       MOSUNNY   90  58  33 SW9       29.77F
MORRISTOWN     MOSUNNY   93  59  31 SW14G21   29.78F HX  92
SOMERVILLE     MOSUNNY   90  59  35 S10G18    29.76F
SUSSEX         PTSUNNY   85  62  46 SW10G17   29.77F
ANDOVER          N/A     84  62  47 SW7       29.79F
TRENTON        SUNNY     90  61  37 SW14G24   29.79F HX  90
MILLVILLE      SUNNY     90  62  39 S9        29.83F HX  90
ATLANTIC CITY  MOSUNNY   88  70  55 S15       29.83F HX  93
WRIGHTSTOWN    SUNNY     90  62  39 SW17      29.78F HX  91
TOMS RIVER       N/A     91  61  35 SW16G22   29.81F HX  91
BELMAR         MOSUNNY   91  61  35 W13       29.81S HX  91
$$

PAZ047>061-062-071-032100-
EASTERN PENNSYLVANIA

CITY           SKY/WX    TMP DP  RH WIND       PRES   REMARKS
PHILADELPHIA   MOSUNNY   92  58  31 SW17G28   29.80F HX  91
ALLENTOWN      PTSUNNY   86  62  44 SW14G20   29.79F
SCRANTON       PTSUNNY   85  58  39 W17       29.80S
$$

CTZ002-004>006-009-010-012-RIZ004-006-007-MAZ004-011-015-032100-
SOUTHERN NEW ENGLAND
 IN CT

CITY           SKY/WX    TMP DP  RH WIND       PRES   REMARKS
BRADLEY INTL   MOSUNNY   89  61  38 S15G23    29.74F
HARTFORD       SUNNY     89  61  38 SW13G21   29.75F
DANBURY        MOSUNNY   85  61  44 S15G22    29.79F
WTRBRY/OXFORD  MOSUNNY   84  64  51 SW12G17   29.82F
BRIDGEPORT     SUNNY     87  66  49 S15       29.78F
MERIDEN        SUNNY     90  60  36 S12G28    29.77F
NEW HAVEN      MOSUNNY   86  65  49 S12       29.79F
CHESTER        FAIR      84  63  48 S14       29.82S
GROTON         SUNNY     79  69  71 S14       29.80F
WILLIMANTIC    SUNNY     89  57  33 S16G24    29.79F

 IN RI

CITY           SKY/WX    TMP DP  RH WIND       PRES   REMARKS
PROVIDENCE     MOSUNNY   87  62  43 S18G26    29.81S
BLOCK ISLAND     N/A     81  73  78 S14       29.85S
WESTERLY       SUNNY     81  68  64 S14G21    29.83S

 IN MA

CITY           SKY/WX    TMP DP  RH WIND       PRES   REMARKS
BOSTON         MOSUNNY   88  61  40 S20       29.76F
WORCESTER      SUNNY     84  58  40 SW14G25   29.81F
WESTFIELD      MOSUNNY   86  61  42 S20       29.74F
PROVINCETOWN   SUNNY     84  61  45 S15G21    29.82S
NANTUCKET      MOSUNNY   77  67  71 S15       29.85F
$$

ANZ330-335-338-340-345-350-353-355-032100-
COASTAL MARINE OBSERVATIONS


STATION/POSITION TIME  SKY/WX   TEMP    WIND        PRES    VSBY  WAVE
                                AIR SEA DIR/SP/G                  HT/PER
                 (UTC)          (F)     (DEG/KT/KT) (MB)    (MI)  (FT/S)
NY HARB ENTRANCE 1850            79 74  190/ 16/ 19 1009.3          3/ 7
4S FIRE IS       NOT AVBL
20S FIRE ISLAND  1850            78 76  200/ 14/ 17 1010.2          3/ 7
GREAT SOUTH BAY  1900            78 81  220/ 16/ 17   N/A
23SW MTP         1950            77 76  210/ 12/ 14 1010.4          4/ 8
HUDSON CANYON    NOT AVBL
KINGS POINT      1900            83 71  200/ 15/ 19 1008.0
EXECUTION ROCKS  1900            82     190/  8/ 12   N/A
CENTRAL LI SOUND NOT AVBL
EASTERN LI SOUND 1900            74 69  180/ 12/ 14   N/A
ROBBINS REEF     1900            86     190/ 22/ 26 1007.3
$$


>>>>>>>>>>>>>>>>>>>>>>>>>>>> KEY <<<<<<<<<<<<<<<<<<<<<<<<<<<
>                                                          <
>     SKY/WX - SKY CONDITION/PRESENT WEATHER               <
>     TMP    - TEMPERATURE IN FAHRENHEIT                   <
>     DP     - DEWPOINT IN FAHRENHEIT                      <
>     RH     - RELATIVE HUMIDITY IN PERCENT                <
>     WIND   - DIRECTION AND SPEED IN MPH                  <
>     PRES   - MEAN SEA LEVEL PRESSURE IN INCHES OF HG     <
>     WCI    - WIND CHILL INDEX                            <
>     VSB    - VISIBILITY IN MILES                         <
>     HX     - HEAT INDEX                                  <
>     TC     - TEMPERATURE IN CELSIUS                      <
>     VRB    - VARIABLE WIND DIRECTION                     <
>                                                          <
>>>>>>>>>>>>>>>>>>>>>>>>>>>> KEY <<<<<<<<<<<<<<<<<<<<<<<<<<<





USA.gov is the U.S. government's official web portal to all federal, state and local government web resources and services.